Skip Page Navigation
NASA JPL Caltech
NASA Logo - Jet Propulsion Laboratory + View the NASA Portal
+ Center for Near-Earth Object Studies
JPL Home Earth Solar System Stars & Galaxies Technology
JPL Solar System Dynamics
BODIES ORBITS EPHEMERIDES TOOLS PHYSICAL DATA DISCOVERY FAQ SITE MAP
IMPORTANT: The SSD Announcement email list is now available. Major changes are coming in the near future, including possible hostname and/or URL changes. To be notified of such changes, subscribe to this email list.

Please visit this page for more details.


JPL Small-Body Database Browser
Search: [ help ]  
71846 (2000 UM96)
Classification: Main-belt Asteroid          SPK-ID: 2071846
Ephemeris | Orbit Diagram | Orbital Elements | Mission Design | Physical Parameters | Discovery Circumstances | Close-Approach Data ]

[ show orbit diagram ]
Orbital Elements at Epoch 2458600.5 (2019-Apr-27.0) TDB
Reference: JPL 19 (heliocentric ecliptic J2000)
 Element Value Uncertainty (1-sigma)   Units 
e .05470679612848014 4.3893e-08  
a 2.325538162116607 1.2372e-08 au
q 2.198315419992694 1.0108e-07 au
i 5.857873914896286 4.3747e-06 deg
node 264.3510100914954 5.1593e-05 deg
peri 216.7465465455105 6.8172e-05 deg
M 6.888097139203794 4.5296e-05 deg
tp 2458575.715486684298
(2019-Apr-02.21548668)
0.00016293 TDB
period 1295.339571050829
3.55
1.0337e-05
2.83e-08
d
yr
n .2779194027925466 2.2179e-09 deg/d
Q 2.452760904240521 1.3049e-08 au
  Orbit Determination Parameters
   # obs. used (total)      709  
   data-arc span      7736 days (21.18 yr)  
   first obs. used      1997-11-25  
   last obs. used      2019-01-30  
   planetary ephem.      DE431  
   SB-pert. ephem.      SB431-N16  
   condition code      0  
   norm. resid. RMS      .54728  
   source      ORB  
   producer      Otto Matic  
   solution date      2019-Jul-13 08:22:45  

Additional Information
 Earth MOID = 1.21783 au 
 Jupiter MOID = 2.60247 au 
 T_jup = 3.566 
[ show covariance matrix ]

Ephemeris | Orbit Diagram | Orbital Elements | Mission Design | Physical Parameters | Discovery Circumstances | Close-Approach Data ]

Physical Parameter Table
Parameter Symbol Value Units Sigma Reference Notes
absolute magnitude H 15.7   n/a MPO366074  

71846 (2000 UM96)          Discovered 2000-Oct-25 by LINEAR at Socorro
Reference: 20031109/Numbers.arcLast Updated: 2004-04-19

[ show close-approach data ]
Alternate Designations
 2000 UM96 = 1997 WQ49 
Ephemeris | Orbit Diagram | Orbital Elements | Mission Design | Physical Parameters | Discovery Circumstances | Close-Approach Data ]
ABOUT SSD CREDITS/AWARDS PRIVACY/COPYRIGHT GLOSSARY LINKS
FirstGov 2019-Oct-15 00:15 UT
(server date/time)  
NASA Home Page
Site Manager:   Ryan S. Park
Webmaster  Alan B. Chamberlin